GS0511 Weather Reports


time (UTC)temp
F
wind
direction
speed
knots
gust
knots
rain 1hr
in
rain 24hr
in
rain mn
in
humidity
%
barometer
mb
20260905224457 72 67 0.9 2.6 0.00 0.00 0.00 74 1016.0
20260905222957 74 295 0.9 1.7 0.00 0.00 0.00 72 1016.1
20260905221459 74 355 0.9 2.6 0.00 0.00 0.00 71 1016.0
20260905220001 74 280 1.7 2.6 0.00 0.00 0.00 70 1016.0
20260905214457 74 17 0.9 2.6 0.00 0.00 0.00 70 1015.9
20260905212957 75 316 1.7 3.5 0.00 0.00 0.00 69 1015.8
20260905211457 75 63 0.9 4.3 0.00 0.00 0.00 65 1015.6
20260905210000 75 339 0.9 2.6 0.00 0.00 0.00 67 1015.5
20260905204457 75 128 0.9 3.5 0.00 0.00 0.00 67 1015.5
20260905202957 75 355 1.7 3.5 0.00 0.00 0.00 67 1015.4
20260905201458 75 324 1.7 3.5 0.00 0.00 0.00 68 1015.5
20260905200002 75 331 0.9 3.5 0.00 0.00 0.00 69 1015.4
20260905194459 74 332 1.7 4.3 0.00 0.00 0.00 68 1015.5
20260905192957 75 32 0.9 4.3 0.00 0.00 0.00 69 1015.5
20260905191457 74 344 1.7 3.5 0.00 0.00 0.00 67 1015.7
20260905190002 74 63 1.7 3.5 0.00 0.00 0.00 73 1015.7
20260905184457 73 78 1.7 2.6 0.00 0.00 0.00 69 1015.8
20260905182957 74 355 0.9 3.5 0.00 0.00 0.00 70 1015.4
20260905181457 74 64 0.0 1.7 0.00 0.00 0.00 69 1015.4
20260905174457 74 325 1.7 3.5 0.00 0.00 0.00 69 1015.4
20260905172956 74 315 0.9 4.3 0.00 0.00 0.00 69 1015.3
20260905171456 73 227 1.7 6.1 0.00 0.00 0.00 69 1015.4
20260905164457 73 294 1.7 3.5 0.00 0.00 0.00 70 1015.3
20260905162956 73 305 0.9 2.6 0.00 0.00 0.00 71 1015.5
20260905161456 73 264 1.7 3.5 0.00 0.00 0.00 71 1015.6
20260905155959 73 301 1.7 4.3 0.00 0.00 0.00 72 1015.6
20260905154457 72 340 1.7 4.3 0.00 0.00 0.00 72 1015.8
20260905151456 72 237 1.7 3.5 0.00 0.00 0.00 76 1015.9
20260905145959 72 312 1.7 7.0 0.00 0.00 0.00 75 1015.8
20260905144456 71 350 1.7 3.5 0.00 0.00 0.00 74 1015.9
20260905141456 69 355 0.9 1.7 0.00 0.00 0.00 82 1015.9
20260905140000 70 355 1.7 5.2 0.00 0.00 0.00 82 1015.8
20260905131457 67 315 0.9 2.6 0.00 0.00 0.00 90 1015.8
20260905125958 66 315 0.9 3.5 0.00 0.00 0.00 94 1016.0
20260905124456 65 341 0.9 2.6 0.00 0.00 0.00 98 1016.2
20260905122955 64 300 0.9 3.5 0.00 0.00 0.00 98 1015.9
20260905121455 63 211 0.0 1.7 0.00 0.00 0.00 99 1015.9
20260905115959 61 211 0.0 0.9 0.00 0.00 0.00 99 1015.9
20260905114456 59 211 0.0 0.0 0.00 0.00 0.00 99 1015.7
20260905112955 58 211 0.0 0.0 0.00 0.00 0.00 98 1015.4
20260905111458 58 211 0.0 0.0 0.00 0.00 0.00 98 1015.3
20260905104455 57 211 0.0 0.0 0.00 0.00 0.00 97 1015.5
20260905102955 58 211 0.0 0.0 0.00 0.00 0.00 98 1015.1
20260905101456 58 211 0.0 0.0 0.00 0.00 0.00 98 1014.9
20260905095958 58 211 0.0 0.0 0.00 0.00 0.00 97 1014.9
20260905094455 58 211 0.0 0.0 0.00 0.00 0.00 98 1014.9
20260905092956 58 211 0.0 0.0 0.00 0.00 0.00 97 1014.8
20260905091455 58 211 0.0 0.0 0.00 0.00 0.00 97 1014.7
20260905085958 59 211 0.0 0.0 0.00 0.00 0.00 97 1014.5
20260905084455 59 211 0.0 0.0 0.00 0.00 0.00 97 1014.5
20260905082956 59 211 0.0 0.0 0.00 0.00 0.00 97 1014.5
20260905081455 60 211 0.0 0.0 0.00 0.00 0.00 97 1014.6
20260905075958 60 211 0.0 0.0 0.00 0.00 0.00 97 1014.7
20260905074456 60 211 0.0 0.0 0.00 0.00 0.00 97 1014.9
20260905072955 61 211 0.0 0.0 0.00 0.00 0.00 97 1014.9
20260905071456 61 211 0.0 0.0 0.00 0.00 0.00 97 1014.8
20260905065958 61 211 0.0 0.0 0.00 0.00 0.00 97 1014.9
20260905064455 62 211 0.0 0.0 0.00 0.00 0.00 97 1015.1
20260905062956 62 211 0.0 0.0 0.00 0.00 0.00 96 1015.1
20260905061456 62 211 0.0 0.0 0.00 0.00 0.00 96 1015.2
20260905055958 63 211 0.0 0.0 0.00 0.00 0.00 96 1015.2
20260905054456 63 211 0.0 0.0 0.00 0.00 0.00 96 1015.3
20260905052956 63 211 0.0 0.0 0.00 0.00 0.00 96 1015.4
20260905051456 63 211 0.0 0.0 0.00 0.00 0.00 95 1015.4
20260905045957 63 211 0.0 0.0 0.00 0.00 0.00 95 1015.3
20260905044455 63 211 0.0 0.0 0.00 0.00 0.00 94 1015.3
20260905042954 64 211 0.0 0.0 0.00 0.00 0.00 93 1015.3
20260905041454 64 211 0.0 0.0 0.00 0.00 0.00 92 1015.4
20260905040006 65 211 0.0 0.9 0.00 0.00 0.00 92 1015.3
20260905034458 65 211 0.0 0.0 0.00 0.00 0.00 91 1015.3
20260905032958 65 211 0.0 1.7 0.00 0.00 0.00 91 1015.4
20260905031458 65 211 0.0 1.7 0.00 0.00 0.00 91 1015.2
20260905030001 65 211 0.0 0.9 0.00 0.00 0.00 92 1015.2
20260905024459 65 211 0.0 1.7 0.00 0.00 0.00 91 1015.2
20260905022958 65 211 0.0 0.9 0.00 0.00 0.00 91 1015.4
20260905021458 66 211 0.0 0.9 0.00 0.00 0.00 91 1015.3
20260905020001 66 211 0.0 0.0 0.00 0.00 0.00 90 1015.4
20260905014458 67 211 0.0 0.0 0.00 0.16 0.00 89 1015.4
20260905012959 67 211 0.0 0.0 0.00 0.16 0.00 87 1015.4
20260905011458 68 211 0.0 0.0 0.00 0.16 0.00 87 1015.4
20260905010002 68 211 0.0 0.0 0.00 0.16 0.00 88 1015.3
20260905002958 69 211 0.0 0.0 0.00 0.53 0.00 87 1015.3
20260905001458 69 211 0.0 0.0 0.00 0.53 0.00 85 1015.3
20260904234458 70 211 0.0 0.0 0.00 0.53 0.00 85 1015.2
20260904232958 71 211 0.0 0.0 0.00 0.53 0.00 86 1015.0
20260904230001 72 149 0.0 0.9 0.00 0.53 0.00 83 1014.6